Weather Roundup
Issued by NWS

Home | Current Version | Previous Version | Text Only | Print | Product List | Glossary On
Versions: 1 2 3 4 5 6 7 8 9 10 11 12 13 14 15 16 17 18 19 20 21 22 23 24 25 26 27 28 29 30 31 32 33 34 35 36 37 38 39 40 41 42 43 44 45 46 47 48 49 50
000
NZUS93 KARX 012310
HRRWXR

CURRENT HOURLY OBSERVATIONS ACROSS
MUCH OF THE UPPER MISSISSIPPI VALLEY
NATIONAL WEATHER SERVICE LA CROSSE WI
600 PM CDT SAT AUG 01 2015


...SOUTHEAST MINNESOTA...


CITY           SKY/WX    TMP DP  RH WIND       PRES   REMARKS
ROCHESTER      SUNNY     81  67  62 W9        29.90F
ROCHESTER/MAYO FAIR      84  64  49 W5        29.89F
WINONA         SUNNY     82  63  51 NW3       29.87F
AUSTIN         SUNNY     84  64  51 SW9       29.90F
ALBERT LEA     SUNNY     84  64  51 SW8       29.89F
DODGE CENTER   SUNNY     81  66  61 SW7       29.89F
PRESTON        SUNNY     82  64  53 W7        29.92F
OWATONNA       SUNNY     82  68  61 S7        29.87F
FARIBAULT      SUNNY     84  70  61 S6        29.86F
$$

...ELSEWHERE IN MINNESOTA...


CITY           SKY/WX    TMP DP  RH WIND       PRES   REMARKS
MINNEAPOLIS    MOSUNNY   85  63  47 S8        29.83F
INTNL FALLS    SUNNY     79  55  43 W9        29.73F
DULUTH         MOSUNNY   80  52  37 W16       29.81F
RED WING       SUNNY     86  59  39 W7        29.84F
REDWOOD FALLS  SUNNY     87  63  44 SW15      29.82F
MANKATO        MOSUNNY   84  64  51 S10       29.84F
WORTHINGTON    SUNNY     81  63  54 SW14      29.88F
FAIRMONT       SUNNY     84  63  48 SW10      29.88F
$$

...SOUTHWEST WISCONSIN...


CITY           SKY/WX    TMP DP  RH WIND       PRES   REMARKS
LA CROSSE      SUNNY     86  60  41 W6        29.87F
PRAIRIE DU CHI MOSUNNY   87  57  37 W6        29.89S
BOSCOBEL       MOSUNNY   88  64  44 W6        29.89F
LONE ROCK      SUNNY     86  60  41 W9        29.89F
PLATTEVILLE    MOSUNNY   84  62  48 W7        29.92F
FORT MC COY    SUNNY     84  56  38 W6        29.89F
CAMP DOUGLAS   SUNNY     82  61  49 W9        29.88F
VIROQUA        FAIR      82  62  51 W6        29.92F
WIS DELLS      SUNNY     84  52  32 W7        29.89F
$$

...ELSEWHERE IN WISCONSIN...


CITY           SKY/WX    TMP DP  RH WIND       PRES   REMARKS
MILWAUKEE      MOSUNNY   84  56  38 W12       29.89S
MADISON        MOSUNNY   84  59  42 VRB6      29.88F
GREEN BAY      SUNNY     81  51  35 W9        29.86F
EAU CLAIRE     MOSUNNY   83  59  44 SW9       29.86F
BLACK RVR FLS  FAIR      85  55  35 W8        29.87F
MEDFORD        SUNNY     76  56  51 W10       29.89F
WAUSAU         SUNNY     80  50  34 W14       29.86F
WIS RAPIDS     SUNNY     82  48  30 W13       29.89F
MARSHFIELD     SUNNY     80  52  37 W9        29.89F
RICE LAKE      MOSUNNY   77  57  49 SW5       29.87F
$$

...NORTHEAST IOWA...


CITY           SKY/WX    TMP DP  RH WIND       PRES   REMARKS
DECORAH        MOSUNNY   82  64  54 VRB5      29.91F
MASON CITY     MOSUNNY   85  59  41 SW7       29.92F
CHARLES CITY   PTSUNNY   82  70  65 SW7       29.92F
OELWEIN        PTSUNNY   82  72  69 W5        29.93F
$$

...ELSEWHERE IN IOWA...


CITY           SKY/WX    TMP DP  RH WIND       PRES   REMARKS
DES MOINES     PTSUNNY   87  69  54 W7        29.92S HX  91
IOWA CITY      PTSUNNY   84  70  62 SW6       29.94F
FORT DODGE     PTSUNNY   84  68  58 SW9       29.93S
$$

...NORTHERN ILLINOIS...


CITY           SKY/WX    TMP DP  RH WIND       PRES   REMARKS
CHICAGO-OHARE  PTSUNNY   84  60  44 W18G24    29.90F
CHICAGO-MIDWAY PTSUNNY   85  59  41 W13G24    29.90F
MOLINE         PTSUNNY   84  68  58 SW5       29.93F
ROCKFORD       PTSUNNY   83  65  54 W9        29.92F
PEORIA         MOSUNNY   87  62  43 SW10      29.96S
$$

NOTE: "FAIR" INDICATES FEW OR NO CLOUDS BELOW 12,000 FEET WITH NO
SIGNIFICANT WEATHER AND/OR OBSTRUCTIONS TO VISIBILITY. WIND
SPEEDS ARE IN MILES-PER-HOUR.



USA.gov is the U.S. government's official web portal to all federal, state and local government web resources and services.